FENGYUN 1C DEB

Satellite information

Favourite Embed

Satellite Type and Status

DEBRISIN ORBIT

Key statistics

Satellite FENGYUN 1C DEB at a glance.

Uptime

9714

Days in orbit

Revolutions

≈ 14.5

Per day

Orbit

SSO

Sun Synchronous Orbit

Inclination

99.0

Latest

Satellite identification and parameters

Extended collection of information and parameters for FENGYUN 1C DEB.

Object identification

Identified? True

Debris? True

Object name: FENGYUN 1C DEB

International designator: 1999-025BAL

Object number (NORAD): 30946

Object ID (CCSDS): 30946

Country: PEOPLES REPUBLIC OF CHINA (PRC)

Current information (Y/N): Y

RCS size: SMALL

Orbital parameters

Period: 99.439 minutes

Inclination: 99.0389 deg

SMA: 7109.906 km

Apoapsis: 795.287 km

Periapsis: 668.255 km

RAAN: 99.8685 deg

Eccentricy: 0.00893348

Argument of periapsis: 198.6165 deg

Mean anomaly: 313.7183 deg

Mean motion: 14.48128089 rev/day

Mean motion (dot): 0.00005459 rev/day2

B* drag term: 0.0014069828 1/REarth

Two-line elements (TLE)

Creation date: Dec. 11, 2025, 3:54 a.m.

Reference frame: TEME

Reference center: EARTH

Epoch: Dec. 10, 2025, 7:30 p.m. UTC

TLE line 0: 0 FENGYUN 1C DEB

TLE line 1: 1 30946U 99025BAL 25344.81302031 .00005459 00000-0 14070-2 0 9990

TLE line 2: 2 30946 99.0389 99.8685 0089335 198.6165 313.7183 14.48128089983237

Live tracking on map

Real-time ground track for satellite FENGYUN 1C DEB.

In-orbit conjunctions

A list of the most updated potential collisions computed for object FENGYUN 1C DEB.

Target Orbit TCA Probability of collision Miss distance Type
PICOSAT 5 SSO 2025-09-01 15:47:13 0.0002025309 717.0 (m) PAYLOAD
SL-3 R/B LEO 2025-03-10 10:30:10 0.0003765799 124.0 (m) ROCKET BODY
CZ-6A DEB LEO 2025-02-15 18:51:22 0.000173516 310.0 (m) DEBRIS
SAFIR 2 SSO 2024-11-15 11:57:31 0.0001200573 617.0 (m) PAYLOAD
TANSEI 3 DEB HEO 2024-11-09 16:30:38 0.0001130324 750.0 (m) DEBRIS

Associated space launch

Chinese polar orbiting meteorological satellite

FENGYUN 1C DEB was lifted into orbit during the mission ‘Long March 4B | Feng Yun 1C’, on board a Long March 4B space rocket.

The launch took place on May 10, 1999, 1:33 a.m. from Launch Complex 7.

For more information about the launch, click the button.

Launch to space Long March 4B | Feng Yun 1C
Long March 4B | Feng Yun 1C

Agency: N/A

Status: Launch Successful

Launch date: May 10, 1999, 1:33 a.m. UTC

Rocket: Long March 4B

Launch pad: Launch Complex 7

Location: Taiyuan Satellite Launch Center, People's Republic of China

...

Latest news about this satellite

There are no fresh news available about this satellite. Check back as we update our databases every day.


Newsletter sign-up

Weekly statistics, charts and insights to help you stay on top of the space industry.